THORAD AGENA D DEB, 4767

Orbit data source: Space-Track

THORAD AGENA D DEB, 4767 is space debris in SSO originally from a launch on Wed, 08 Apr 1970 UTC launched from the Air Force Western Test Range (AFWTR). Debris objects in space refer to the collection of defunct objects orbiting the Earth. Examples of debris include non-operational satellites, rocket bodies, and fragments generated from explosions, collisions, or faulty payload assembly.

Loading next visibility...
Identifier
4767, 1970-025DM
Orbit
SSO
Country
Flag of USUS
Related business
Manufacturer
Unknown
Mission
Spacecraft
Bus & Motor
Unknown
Mass
Unknown
Launch date (UTC)
1970-04-08 (56 years ago)
Launch vehicle
Unknown
Launch site
Air Force Western Test Range (AFWTR)
Object type
Payload
Rocket body
Debris
Shape & HBR
Unknown shape, 0.1 m
Radar Cross Section
Medium (>0.1 m² and <1 m²)

Expand to show TLE details & history
Last TLE update: 22 hours ago

TLE from 22 hours ago
0 THORAD AGENA D DEB
1 04767U 70025DM  25300.70235954  .00000430  00000-0  50997-3 0  9993
2 04767  99.9252  30.1711 0053044 114.3968  42.8118 13.73204010770260
Epoch: 2025-10-27T16:51Z
TLE epoch observation values (Epoch: 2025-10-27T16:51:23.864Z)
Latitude
22.03879°
Longitude
-74.93801°
Altitude
962.11 km
Speed
7.387 km/s
True Right ascension
14h 16m 50s
True Declination
21° 55' 22"
Sunlit
Object was in daylight at epoch
Visualization orbit readout
Latitude
Unknown
Longitude
Unknown
Altitude
Unknown
Speed
Unknown
Apparent Right ascension
Unknown
Apparent Declination
Unknown
Sunlit
N/A
Visualization observer readout
Local Sidereal Time
09:53:28
Azimuth
Unknown
Elevation
Unknown
Doppler factor
Unknown
Orbital elements
Apogee altitude
1,024.432 km
Perigee altitude
946.314 km
Semi-major axis
7,363.51 km
Eccentricity
0.0053
Inclination
99.9252°
RAAN
30.1711°
Arg. of periapsis
114.3968°
True anomaly
43.2269°
Mean anomaly
42.8118°
Eccentric anomaly
43.01915°
Mean motion
3.43491 °/min
Orbital period
104.81 mins
BSTAR
0.00050997
Loading maneuver chart data...
Computing Atmospheric mass density...

Documentation

Showing up to 5 results
|